Weather History for Pineville, WV

Change the Weather History Date:

Thursday, September 5, 2013

  Actual Average (KBKW) Record (KBKW)
Temperature  
Mean Temperature 70 °F 67 °F  
Max Temperature 82 °F 76 °F 94 °F (1954)
Min Temperature 58 °F 57 °F 36 °F (1897)
Degree Days  
Heating Degree Days 0 1  
Month to date heating degree days 5  
Since 1 July heating degree days 26  
Cooling Degree Days 5 3  
Month to date cooling degree days 18  
Year to date cooling degree days 511  
Growing Degree Days 20 (Base 50)    
Moisture  
Dew Point 62 °F    
Average Humidity 88    
Maximum Humidity 100    
Minimum Humidity 49    
Precipitation  
Precipitation 0.00 in 0.09 in 2.30 in (1953)
Month to date precipitation 0.49  
Year to date precipitation 30.15  
Snow  
Snow 0.00 in - - ()
Month to date snowfall  
Since 1 September snowfall  
Snow Depth -    
Sea Level Pressure  
Sea Level Pressure 30.25 in    
Wind  
Wind Speed - (North)    
Max Wind Speed -    
Max Gust Speed -    
Visibility 6 miles    
Events Fog    
T = Trace of Precipitation, MM = Missing Value Source: NWS Daily Summary

Daily Weather History Graph

Daily Weather History Graph

Search for Another Location

Airport:

Trip Planner

Search our weather history database for the weather conditions in past years. The results will help you decide how hot, cold, wet, or windy it might be!

Date:

Astronomy

Sep. 05, 2013 Rise Set
Actual Time 7:00 AM EDT 7:48 PM EDT
Civil Twilight 6:33 AM EDT 8:15 PM EDT
Nautical Twilight 6:01 AM EDT 8:46 PM EDT
Astronomical Twilight 5:29 AM EDT 9:19 PM EDT
Moon 7:09 AM EDT (9/5) 7:41 PM EDT (9/5)
Length of Visible Light 13h 42m
Length of Day
12h 48m
New Moon, 0% of the Moon is Illuminated
Sep 5
New Moon
Sep 12
First Quarter
Sep 19
Full
Sep 26
Last Quarter
Oct 4
New

Hourly Weather History & Observations

Time (EDT) Temp. Heat Index Dew Point Humidity Pressure Visibility Wind Dir Wind Speed Gust Speed Precip Events Conditions
12:15 AM 58.8 °F - 58.8 °F 100% 30.24 in 7.0 mi North - - N/A   Scattered Clouds
12:35 AM 59.0 °F - 59.0 °F 100% 30.24 in 7.0 mi North - - N/A   Overcast
12:55 AM 59.4 °F - 59.4 °F 100% 30.25 in 0.5 mi North - - N/A Fog Fog
1:15 AM 59.9 °F - 59.9 °F 100% 30.25 in 2.0 mi North - - N/A   Overcast
1:35 AM 59.4 °F - 59.4 °F 100% 30.25 in 0.5 mi North - - N/A Fog Fog
1:55 AM 59.0 °F - 59.0 °F 100% 30.24 in 2.5 mi North - - N/A   Overcast
2:15 AM 60.1 °F - 60.1 °F 100% 30.23 in 0.8 mi North - - N/A   Overcast
2:35 AM 60.6 °F - 60.6 °F 100% 30.23 in 0.2 mi North - - N/A Fog Fog
2:55 AM 60.6 °F - 60.6 °F 100% 30.23 in 0.2 mi North - - N/A Fog Fog
3:15 AM 60.4 °F - 60.4 °F 100% 30.23 in 0.2 mi North - - N/A Fog Fog
3:35 AM 60.3 °F - 60.3 °F 100% 30.24 in 0.2 mi North - - N/A Fog Fog
3:55 AM 59.4 °F - 59.4 °F 100% 30.24 in 0.5 mi North - - N/A Fog Fog
4:15 AM 59.2 °F - 59.2 °F 100% 30.24 in 0.8 mi North - - N/A   Overcast
4:35 AM 59.0 °F - 59.0 °F 100% 30.24 in 0.8 mi North - - N/A   Overcast
4:55 AM 59.0 °F - 59.0 °F 100% 30.24 in 0.8 mi North - - N/A   Overcast
5:15 AM 58.5 °F - 58.5 °F 100% 30.24 in 0.8 mi North - - N/A   Overcast
5:35 AM 58.5 °F - 58.5 °F 100% 30.24 in 0.5 mi North - - N/A Fog Fog
5:55 AM 58.5 °F - 58.5 °F 100% 30.25 in 0.2 mi North - - N/A Fog Fog
6:15 AM 58.5 °F - 58.5 °F 100% 30.25 in 0.5 mi North - - N/A Fog Fog
6:35 AM 58.6 °F - 58.6 °F 100% 30.25 in 0.5 mi North - - N/A Fog Fog
6:55 AM 58.8 °F - 58.8 °F 100% 30.25 in 0.2 mi North - - N/A Fog Fog
7:15 AM 58.6 °F - 58.6 °F 100% 30.26 in 0.2 mi North - - N/A Fog Fog
7:35 AM 58.8 °F - 58.8 °F 100% 30.26 in 0.2 mi North - - N/A Fog Fog
7:55 AM 58.5 °F - 58.5 °F 100% 30.27 in 0.2 mi North - - N/A Fog Fog
8:15 AM 58.6 °F - 58.6 °F 100% 30.28 in 0.2 mi North - - N/A Fog Fog
8:35 AM 58.6 °F - 58.6 °F 100% 30.28 in 0.2 mi North - - N/A Fog Fog
8:55 AM 59.2 °F - 59.2 °F 100% 30.28 in 1.2 mi North - - N/A   Overcast
9:15 AM 59.9 °F - 59.9 °F 100% 30.28 in 1.8 mi North - - N/A   Overcast
9:35 AM 60.1 °F - 60.1 °F 100% 30.29 in 5.0 mi North - - N/A   Overcast
9:55 AM 61.0 °F - 61.0 °F 100% 30.29 in 5.0 mi North - - N/A   Overcast
10:15 AM 63.1 °F - 63.1 °F 100% 30.29 in 10.0 mi North - - N/A   Overcast
10:35 AM 65.1 °F - 63.7 °F 95% 30.29 in 10.0 mi North - - N/A   Mostly Cloudy
10:55 AM 67.5 °F - 64.0 °F 89% 30.29 in 10.0 mi North - - N/A   Scattered Clouds
11:15 AM 70.7 °F - 65.1 °F 82% 30.29 in 10.0 mi North - - N/A   Clear
11:35 AM 72.7 °F - 65.3 °F 78% 30.29 in 10.0 mi North - - N/A   Clear
11:55 AM 74.1 °F - 64.9 °F 73% 30.29 in 10.0 mi North - - N/A   Clear
12:15 PM 75.6 °F - 65.1 °F 70% 30.28 in 10.0 mi North - - N/A   Clear
12:35 PM 76.1 °F - 65.3 °F 69% 30.27 in 10.0 mi North - - N/A   Scattered Clouds
12:55 PM 77.2 °F - 65.8 °F 68% 30.26 in 10.0 mi North - - N/A   Scattered Clouds
1:15 PM 77.9 °F - 65.8 °F 66% 30.26 in 10.0 mi North - - N/A   Scattered Clouds
1:35 PM 77.9 °F - 65.5 °F 65% 30.26 in 10.0 mi North - - N/A   Scattered Clouds
1:55 PM 79.3 °F - 66.6 °F 65% 30.25 in 10.0 mi North - - N/A   Scattered Clouds
2:15 PM 80.4 °F 82.4 °F 66.0 °F 61% 30.25 in 10.0 mi North - - N/A   Scattered Clouds
2:35 PM 79.7 °F - 65.5 °F 62% 30.25 in 10.0 mi North - - N/A   Scattered Clouds
2:55 PM 81.5 °F 83.3 °F 64.8 °F 57% 30.24 in 10.0 mi North - - N/A   Mostly Cloudy
3:15 PM 82.0 °F 83.1 °F 62.6 °F 52% 30.23 in 10.0 mi North - - N/A   Scattered Clouds
3:35 PM 81.5 °F 82.7 °F 63.0 °F 53% 30.23 in 10.0 mi North - - N/A   Clear
3:55 PM 82.9 °F 83.7 °F 62.2 °F 49% 30.23 in 10.0 mi North - - N/A   Clear
4:15 PM 81.7 °F 82.4 °F 61.3 °F 50% 30.23 in 10.0 mi North - - N/A   Clear
4:35 PM 81.3 °F 82.3 °F 62.2 °F 52% 30.23 in 10.0 mi North - - N/A   Clear
4:55 PM 81.0 °F 82.2 °F 62.8 °F 54% 30.23 in 10.0 mi North - - N/A   Clear
5:15 PM 79.3 °F - 64.0 °F 59% 30.22 in 10.0 mi North - - N/A   Scattered Clouds
5:35 PM 79.0 °F - 63.3 °F 59% 30.22 in 10.0 mi North - - N/A   Scattered Clouds
5:55 PM 77.9 °F - 63.5 °F 61% 30.23 in 10.0 mi North - - N/A   Scattered Clouds
6:15 PM 74.3 °F - 65.8 °F 75% 30.22 in 10.0 mi North - - N/A   Scattered Clouds
6:35 PM 72.5 °F - 66.9 °F 83% 30.22 in 10.0 mi North - - N/A   Clear
6:55 PM 70.7 °F - 67.1 °F 88% 30.22 in 10.0 mi North - - N/A   Clear
7:15 PM 69.4 °F - 66.4 °F 90% 30.22 in 10.0 mi North - - N/A   Clear
7:35 PM 68.4 °F - 66.2 °F 93% 30.22 in 10.0 mi North - - N/A   Clear
7:55 PM 67.1 °F - 65.7 °F 95% 30.22 in 10.0 mi North - - N/A   Clear
8:15 PM 66.0 °F - 64.8 °F 96% 30.23 in 10.0 mi North - - N/A   Clear
8:35 PM 65.3 °F - 64.4 °F 97% 30.23 in 10.0 mi North - - N/A   Clear
8:55 PM 64.6 °F - 63.9 °F 98% 30.23 in 10.0 mi North - - N/A   Clear
9:15 PM 64.2 °F - 63.7 °F 98% 30.24 in 10.0 mi North - - N/A   Clear
9:35 PM 63.5 °F - 63.1 °F 99% 30.24 in 10.0 mi North - - N/A   Clear
9:55 PM 63.0 °F - 62.8 °F 99% 30.25 in 10.0 mi North - - N/A   Clear
10:15 PM 62.6 °F - 62.6 °F 100% 30.25 in 10.0 mi North - - N/A   Clear
10:35 PM 62.2 °F - 62.2 °F 100% 30.25 in 7.0 mi North - - N/A   Clear
10:55 PM 62.1 °F - 62.1 °F 100% 30.25 in 7.0 mi North - - N/A   Clear
11:15 PM 61.7 °F - 61.7 °F 100% 30.26 in 5.0 mi North - - N/A   Clear
11:35 PM 61.3 °F - 61.3 °F 100% 30.26 in 5.0 mi North - - N/A   Clear
11:55 PM 61.0 °F - 61.0 °F 100% 30.26 in 5.0 mi North - - N/A   Clear